Tracking 19817 objects as of 17-Aug-2019
HD Live streaming from Space Station
objects crossing your sky now

COSMOS 2251 DEB

Track COSMOS 2251 DEB now!
10-day predictions


NORAD ID: 38001
Int'l Code: 1993-036BRC
Perigee: 633.5 km
Apogee: 756.9 km
Inclination: 74.0 °
Period: 98.5 minutes
Semi major axis: 7066 km
RCS: 0.0006 m2 (small)
Launch date: June 16, 1993
Source: Commonwealth of Independent States (former USSR) (CIS)
Launch site: PLESETSK MISSILE AND SPACE COMPLEX (PKMTR)

Note: This is SATELLITE DEBRIS
aabbcc
Your satellite tracking list
Your tracking list is empty




NASA's NSSDC Master Catalog

Two Line Element Set (TLE):
1 38001U 93036BRC 19228.51759354 +.00000134 +00000-0 +32169-4 0  9997
2 38001 074.0101 271.2848 0087298 273.6516 155.3610 14.61580972408537
Source of the keplerian elements: AFSPC